DAL1156 KRDU-KATL

Flight info

Callsign DAL1156
Flight time 0h 59m
Altitude 32000
Route SHPRD4 SHPRD LEAVI OZZZI2
Aircraft B752/M-SDE2E3FGHIJ3J4J7RWXY/LB1

Departure

Time 2026-05-07 00:38
Airport Raleigh-Durham International Airport (KRDU)

Arrival

Time 2026-05-07 01:37
Airport Hartsfield Jackson Atlanta International Airport (KATL)
Time Latitude Longitude Altitude Speed Heading
2026-05-06 23:59 35.87759 -78.79417 391 ft 0 kts 135°
2026-05-07 00:12 35.87750 -78.79430 391 ft 0 kts 135°
2026-05-07 00:12 35.87714 -78.79489 388 ft 0 kts 135°
2026-05-07 00:12 35.87709 -78.79485 388 ft 0 kts 135°
2026-05-07 00:13 35.87706 -78.79480 389 ft 0 kts 135°
2026-05-07 00:27 35.87714 -78.79490 388 ft 2 kts 135°
2026-05-07 00:28 35.87725 -78.79503 387 ft 2 kts 135°
2026-05-07 00:28 35.87735 -78.79515 386 ft 1 kts 135°
2026-05-07 00:28 35.87741 -78.79524 386 ft 2 kts 105°
2026-05-07 00:28 35.87740 -78.79542 385 ft 1 kts 55°
2026-05-07 00:29 35.87736 -78.79546 385 ft 0 kts 40°
2026-05-07 00:29 35.87734 -78.79549 385 ft 0 kts 45°
2026-05-07 00:31 35.87739 -78.79542 385 ft 7 kts 45°
2026-05-07 00:31 35.87792 -78.79479 387 ft 11 kts 46°
2026-05-07 00:31 35.87867 -78.79384 388 ft 24 kts 45°
2026-05-07 00:31 35.87989 -78.79233 392 ft 24 kts 46°
2026-05-07 00:32 35.88074 -78.79127 395 ft 14 kts 46°
2026-05-07 00:32 35.88135 -78.79048 397 ft 11 kts 46°
2026-05-07 00:32 35.88182 -78.78989 398 ft 7 kts 44°
2026-05-07 00:32 35.88222 -78.78943 400 ft 9 kts 44°
2026-05-07 00:33 35.88281 -78.78870 402 ft 14 kts 46°
2026-05-07 00:33 35.88365 -78.78767 403 ft 19 kts 44°
2026-05-07 00:33 35.88462 -78.78645 406 ft 18 kts 44°
2026-05-07 00:33 35.88553 -78.78534 405 ft 18 kts 44°
2026-05-07 00:34 35.88643 -78.78427 403 ft 17 kts 44°
2026-05-07 00:34 35.88725 -78.78322 402 ft 16 kts 46°
2026-05-07 00:34 35.88808 -78.78220 400 ft 16 kts 44°
2026-05-07 00:34 35.88884 -78.78127 401 ft 14 kts 44°
2026-05-07 00:35 35.88950 -78.78040 401 ft 12 kts 49°
2026-05-07 00:35 35.88991 -78.77943 402 ft 13 kts 70°
2026-05-07 00:35 35.89039 -78.77855 404 ft 11 kts 46°
2026-05-07 00:35 35.89092 -78.77792 404 ft 12 kts 44°
2026-05-07 00:36 35.89181 -78.77677 407 ft 20 kts 49°
2026-05-07 00:36 35.89247 -78.77600 406 ft 2 kts 357°
2026-05-07 00:36 35.89262 -78.77638 406 ft 2 kts 266°
2026-05-07 00:36 35.89288 -78.77712 405 ft 20 kts 309°
2026-05-07 00:37 35.89357 -78.77820 404 ft 9 kts 276°
2026-05-07 00:37 35.89344 -78.77850 403 ft 1 kts 221°
2026-05-07 00:37 35.89193 -78.78036 399 ft 72 kts 225°
2026-05-07 00:37 35.88639 -78.78719 399 ft 151 kts 226°
2026-05-07 00:38 35.87770 -78.79806 669 ft 197 kts 224°
2026-05-07 00:38 35.86733 -78.80975 1757 ft 208 kts 220°
2026-05-07 00:38 35.85760 -78.81979 3424 ft 187 kts 221°
2026-05-07 00:38 35.84727 -78.83006 4387 ft 200 kts 221°
2026-05-07 00:39 35.83645 -78.84042 5502 ft 202 kts 221°
2026-05-07 00:39 35.82640 -78.85169 5975 ft 202 kts 242°
2026-05-07 00:39 35.82232 -78.86934 6034 ft 229 kts 271°
2026-05-07 00:39 35.82466 -78.88914 6626 ft 234 kts 275°
2026-05-07 00:40 35.82642 -78.90926 7106 ft 244 kts 273°
2026-05-07 00:40 35.82765 -78.92995 7863 ft 242 kts 272°
2026-05-07 00:40 35.82868 -78.95091 8439 ft 248 kts 272°
2026-05-07 00:40 35.82952 -78.97173 9146 ft 247 kts 272°
2026-05-07 00:41 35.83028 -78.99298 9812 ft 249 kts 272°
2026-05-07 00:41 35.83098 -79.01427 10491 ft 249 kts 272°
2026-05-07 00:41 35.83164 -79.03548 11179 ft 248 kts 271°
2026-05-07 00:41 35.83226 -79.05649 11849 ft 247 kts 271°
2026-05-07 00:42 35.83289 -79.07811 12107 ft 263 kts 271°
2026-05-07 00:42 35.83354 -79.10136 12349 ft 278 kts 271°
2026-05-07 00:42 35.83420 -79.12525 12981 ft 279 kts 271°
2026-05-07 00:42 35.83487 -79.14924 13664 ft 278 kts 271°
2026-05-07 00:43 35.83552 -79.17303 14099 ft 285 kts 271°
2026-05-07 00:43 35.83617 -79.19748 14642 ft 287 kts 271°
2026-05-07 00:43 35.83684 -79.22224 15203 ft 288 kts 271°
2026-05-07 00:43 35.83750 -79.24699 15650 ft 292 kts 271°
2026-05-07 00:44 35.83815 -79.27197 16169 ft 294 kts 271°
2026-05-07 00:44 35.83881 -79.29721 16657 ft 296 kts 271°
2026-05-07 00:44 35.83794 -79.32258 17080 ft 300 kts 266°
2026-05-07 00:44 35.83593 -79.34830 17548 ft 302 kts 266°
2026-05-07 00:45 35.83407 -79.37377 18057 ft 302 kts 266°
2026-05-07 00:45 35.83215 -79.39936 18566 ft 302 kts 266°
2026-05-07 00:45 35.83022 -79.42523 18957 ft 306 kts 266°
2026-05-07 00:45 35.82819 -79.45188 19322 ft 311 kts 266°
2026-05-07 00:46 35.82621 -79.47812 19930 ft 308 kts 265°
2026-05-07 00:46 35.82420 -79.50428 20288 ft 312 kts 266°
2026-05-07 00:46 35.82214 -79.53128 20636 ft 317 kts 265°
2026-05-07 00:46 35.81862 -79.55806 21077 ft 319 kts 260°
2026-05-07 00:47 35.81395 -79.58526 21147 ft 337 kts 261°
2026-05-07 00:47 35.80906 -79.61437 21181 ft 363 kts 260°
2026-05-07 00:47 35.80371 -79.64603 21396 ft 384 kts 260°
2026-05-07 00:47 35.79820 -79.67821 22304 ft 386 kts 259°
2026-05-07 00:48 35.79272 -79.71041 23305 ft 385 kts 259°
2026-05-07 00:48 35.78725 -79.74232 24494 ft 378 kts 260°
2026-05-07 00:48 35.78195 -79.77320 25798 ft 367 kts 260°
2026-05-07 00:48 35.77681 -79.80331 26706 ft 364 kts 259°
2026-05-07 00:49 35.77162 -79.83352 27623 ft 360 kts 260°
2026-05-07 00:49 35.76650 -79.86327 28570 ft 353 kts 260°
2026-05-07 00:49 35.76150 -79.89235 29347 ft 350 kts 259°
2026-05-07 00:49 35.75647 -79.92147 30273 ft 341 kts 260°
2026-05-07 00:50 35.75164 -79.94950 30869 ft 340 kts 260°
2026-05-07 00:50 35.74671 -79.97801 31507 ft 336 kts 260°
2026-05-07 00:50 35.74190 -80.00580 31925 ft 337 kts 260°
2026-05-07 00:50 35.73694 -80.03445 31948 ft 347 kts 260°
2026-05-07 00:51 35.72671 -80.09332 31943 ft 354 kts 260°
2026-05-07 00:51 35.71627 -80.15327 31934 ft 363 kts 259°
2026-05-07 00:52 35.70554 -80.21451 31934 ft 372 kts 259°
2026-05-07 00:52 35.69453 -80.27723 31937 ft 380 kts 259°
2026-05-07 00:53 35.68335 -80.34085 31939 ft 386 kts 259°
2026-05-07 00:53 35.67185 -80.40584 31941 ft 392 kts 259°
2026-05-07 00:54 35.66000 -80.47170 31937 ft 397 kts 256°
2026-05-07 00:54 35.64012 -80.53569 31934 ft 403 kts 251°
2026-05-07 00:55 35.61887 -80.59930 31929 ft 401 kts 252°
2026-05-07 00:55 35.59764 -80.66241 31938 ft 402 kts 251°
2026-05-07 00:56 35.57612 -80.72598 31945 ft 404 kts 250°
2026-05-07 00:56 35.55448 -80.78974 31948 ft 406 kts 251°
2026-05-07 00:57 35.53259 -80.85413 31937 ft 409 kts 250°
2026-05-07 00:57 35.51069 -80.91832 31944 ft 405 kts 250°
2026-05-07 00:58 35.48884 -80.98219 31943 ft 405 kts 250°
2026-05-07 00:58 35.46688 -81.04629 31943 ft 407 kts 250°
2026-05-07 00:59 35.43375 -81.14275 31936 ft 407 kts 251°
2026-05-07 01:00 35.41175 -81.20672 31943 ft 409 kts 250°
2026-05-07 01:00 35.38949 -81.27113 31946 ft 411 kts 250°
2026-05-07 01:01 35.36708 -81.33592 31934 ft 411 kts 251°
2026-05-07 01:01 35.34478 -81.40023 31940 ft 412 kts 250°
2026-05-07 01:02 35.32241 -81.46465 31939 ft 411 kts 250°
2026-05-07 01:02 35.29989 -81.52936 31950 ft 415 kts 250°
2026-05-07 01:03 35.27712 -81.59470 31955 ft 414 kts 249°
2026-05-07 01:03 35.25455 -81.65925 31956 ft 413 kts 249°
2026-05-07 01:04 35.23185 -81.72402 31941 ft 418 kts 249°
2026-05-07 01:04 35.20891 -81.78939 31965 ft 420 kts 250°
2026-05-07 01:05 35.18604 -81.85440 31957 ft 407 kts 250°
2026-05-07 01:05 35.17504 -81.88552 31921 ft 388 kts 250°
2026-05-07 01:05 35.16428 -81.91611 31954 ft 390 kts 251°
2026-05-07 01:06 35.14266 -81.97745 31929 ft 397 kts 250°
2026-05-07 01:06 35.12073 -82.03951 31953 ft 403 kts 250°
2026-05-07 01:07 35.09835 -82.10260 31960 ft 410 kts 249°
2026-05-07 01:07 35.07550 -82.16695 31971 ft 415 kts 249°
2026-05-07 01:08 35.05239 -82.23183 31953 ft 418 kts 248°
2026-05-07 01:08 35.02914 -82.29703 31965 ft 422 kts 250°
2026-05-07 01:09 35.00096 -82.36057 31963 ft 428 kts 244°
2026-05-07 01:09 34.97100 -82.42346 31952 ft 427 kts 244°
2026-05-07 01:10 34.94137 -82.48525 31948 ft 421 kts 244°
2026-05-07 01:10 34.91162 -82.54706 31947 ft 424 kts 243°
2026-05-07 01:11 34.88185 -82.60867 31951 ft 419 kts 243°
2026-05-07 01:11 34.84914 -82.66772 31963 ft 421 kts 239°
2026-05-07 01:12 34.81541 -82.72568 31958 ft 421 kts 238°
2026-05-07 01:12 34.78178 -82.78362 31956 ft 416 kts 240°
2026-05-07 01:13 34.74896 -82.84198 31955 ft 419 kts 240°
2026-05-07 01:13 34.71600 -82.90036 31951 ft 417 kts 239°
2026-05-07 01:14 34.68383 -82.95712 31524 ft 388 kts 240°
2026-05-07 01:14 34.66883 -82.98358 30228 ft 385 kts 241°
2026-05-07 01:14 34.65394 -83.01006 28930 ft 376 kts 240°
2026-05-07 01:14 34.63913 -83.03619 27950 ft 377 kts 240°
2026-05-07 01:15 34.62414 -83.06265 27550 ft 373 kts 240°
2026-05-07 01:15 34.60974 -83.08801 27432 ft 365 kts 240°
2026-05-07 01:15 34.59549 -83.11309 26742 ft 358 kts 240°
2026-05-07 01:15 34.58147 -83.13778 25410 ft 361 kts 241°
2026-05-07 01:16 34.56740 -83.16254 24422 ft 351 kts 240°
2026-05-07 01:16 34.55376 -83.18644 23923 ft 332 kts 241°
2026-05-07 01:16 34.54112 -83.20857 23956 ft 313 kts 241°
2026-05-07 01:16 34.52878 -83.23029 23958 ft 311 kts 241°
2026-05-07 01:17 34.51649 -83.25198 23958 ft 320 kts 241°
2026-05-07 01:17 34.50359 -83.27466 23967 ft 330 kts 242°
2026-05-07 01:17 34.49026 -83.29810 23544 ft 352 kts 240°
2026-05-07 01:17 34.47590 -83.32297 22831 ft 361 kts 239°
2026-05-07 01:18 34.46135 -83.34792 22120 ft 361 kts 240°
2026-05-07 01:18 34.44716 -83.37226 21359 ft 354 kts 240°
2026-05-07 01:18 34.43325 -83.39609 20678 ft 337 kts 240°
2026-05-07 01:18 34.42011 -83.41863 20049 ft 323 kts 240°
2026-05-07 01:19 34.40723 -83.44079 19436 ft 324 kts 240°
2026-05-07 01:19 34.39419 -83.46322 18845 ft 330 kts 239°
2026-05-07 01:19 34.38090 -83.48604 18215 ft 329 kts 240°
2026-05-07 01:19 34.36784 -83.50839 17602 ft 324 kts 240°
2026-05-07 01:20 34.35506 -83.53030 16991 ft 320 kts 240°
2026-05-07 01:20 34.34220 -83.55231 16383 ft 317 kts 239°
2026-05-07 01:20 34.32959 -83.57391 15862 ft 315 kts 239°
2026-05-07 01:20 34.31707 -83.59533 15442 ft 311 kts 239°
2026-05-07 01:21 34.30470 -83.61644 15114 ft 308 kts 239°
2026-05-07 01:21 34.29122 -83.63699 14791 ft 315 kts 229°
2026-05-07 01:21 34.27482 -83.65475 14484 ft 315 kts 226°
2026-05-07 01:21 34.25857 -83.67226 14196 ft 315 kts 226°
2026-05-07 01:22 34.24204 -83.68997 13883 ft 313 kts 226°
2026-05-07 01:22 34.22592 -83.70718 13579 ft 309 kts 225°
2026-05-07 01:22 34.20993 -83.72424 13278 ft 306 kts 225°
2026-05-07 01:22 34.19387 -83.74133 13000 ft 307 kts 226°
2026-05-07 01:23 34.17776 -83.75851 12737 ft 319 kts 225°
2026-05-07 01:23 34.16110 -83.77621 12470 ft 311 kts 225°
2026-05-07 01:23 34.14511 -83.79310 12401 ft 295 kts 225°
2026-05-07 01:23 34.13012 -83.80899 12361 ft 278 kts 226°
2026-05-07 01:24 34.11593 -83.82402 12191 ft 269 kts 226°
2026-05-07 01:24 34.10193 -83.83890 11991 ft 265 kts 225°
2026-05-07 01:24 34.08755 -83.85309 11742 ft 269 kts 220°
2026-05-07 01:24 34.07227 -83.86609 11489 ft 267 kts 220°
2026-05-07 01:25 34.05612 -83.87653 11121 ft 270 kts 207°
2026-05-07 01:25 34.03802 -83.88391 10312 ft 276 kts 204°
2026-05-07 01:25 34.01990 -83.89066 9868 ft 268 kts 204°
2026-05-07 01:25 34.00215 -83.89735 9207 ft 269 kts 204°
2026-05-07 01:26 33.98488 -83.90404 8997 ft 256 kts 204°
2026-05-07 01:26 33.96774 -83.91074 8975 ft 261 kts 204°
2026-05-07 01:26 33.95024 -83.91757 8972 ft 264 kts 204°
2026-05-07 01:26 33.93270 -83.92447 8966 ft 262 kts 204°
2026-05-07 01:27 33.91531 -83.93129 8889 ft 260 kts 204°
2026-05-07 01:27 33.89837 -83.93791 8519 ft 262 kts 204°
2026-05-07 01:27 33.88082 -83.94491 8246 ft 259 kts 204°
2026-05-07 01:27 33.86379 -83.95174 7943 ft 258 kts 204°
2026-05-07 01:28 33.84690 -83.95859 7412 ft 257 kts 204°
2026-05-07 01:28 33.83009 -83.96526 6855 ft 252 kts 204°
2026-05-07 01:28 33.81328 -83.97202 6195 ft 252 kts 204°
2026-05-07 01:28 33.79720 -83.97865 5998 ft 240 kts 204°
2026-05-07 01:29 33.78117 -83.98534 5983 ft 249 kts 204°
2026-05-07 01:29 33.76453 -83.99232 5893 ft 248 kts 204°
2026-05-07 01:29 33.74824 -83.99912 5228 ft 250 kts 204°
2026-05-07 01:29 33.73225 -84.00595 4952 ft 235 kts 204°
2026-05-07 01:30 33.71667 -84.01271 5027 ft 248 kts 204°
2026-05-07 01:30 33.69996 -84.01999 4974 ft 257 kts 204°
2026-05-07 01:30 33.68341 -84.02730 4960 ft 247 kts 204°
2026-05-07 01:30 33.66772 -84.03548 4971 ft 243 kts 218°
2026-05-07 01:31 33.65658 -84.05041 5005 ft 246 kts 238°
2026-05-07 01:31 33.65012 -84.06947 4984 ft 248 kts 262°
2026-05-07 01:31 33.64977 -84.09021 4980 ft 247 kts 266°
2026-05-07 01:31 33.64964 -84.11008 4915 ft 229 kts 264°
2026-05-07 01:32 33.64955 -84.12825 4936 ft 204 kts 265°
2026-05-07 01:32 33.64954 -84.14437 4944 ft 180 kts 264°
2026-05-07 01:32 33.64951 -84.15856 4945 ft 167 kts 264°
2026-05-07 01:32 33.64944 -84.17290 4791 ft 174 kts 265°
2026-05-07 01:33 33.64941 -84.18758 4556 ft 175 kts 265°
2026-05-07 01:33 33.64941 -84.20207 4322 ft 174 kts 264°
2026-05-07 01:33 33.64942 -84.21648 4085 ft 171 kts 265°
2026-05-07 01:33 33.64943 -84.23073 3858 ft 172 kts 264°
2026-05-07 01:34 33.64943 -84.24500 3630 ft 173 kts 264°
2026-05-07 01:34 33.64944 -84.25948 3400 ft 173 kts 265°
2026-05-07 01:34 33.64946 -84.27380 3182 ft 171 kts 264°
2026-05-07 01:34 33.64947 -84.28813 2950 ft 172 kts 266°
2026-05-07 01:35 33.64946 -84.30263 2721 ft 177 kts 266°
2026-05-07 01:35 33.64949 -84.31757 2492 ft 180 kts 267°
2026-05-07 01:35 33.64950 -84.33250 2245 ft 180 kts 267°
2026-05-07 01:35 33.64952 -84.34764 2000 ft 182 kts 267°
2026-05-07 01:36 33.64953 -84.36248 1747 ft 170 kts 268°
2026-05-07 01:36 33.64955 -84.37626 1536 ft 164 kts 268°
2026-05-07 01:36 33.64955 -84.38996 1381 ft 164 kts 269°
2026-05-07 01:36 33.64952 -84.40317 1123 ft 157 kts 269°
2026-05-07 01:37 33.64961 -84.41573 990 ft 141 kts 268°
2026-05-07 01:37 33.64955 -84.42611 992 ft 98 kts 272°
2026-05-07 01:37 33.64954 -84.43166 1003 ft 30 kts 268°
2026-05-07 01:37 33.64962 -84.43397 1007 ft 26 kts 269°
2026-05-07 01:38 33.64953 -84.43598 1011 ft 22 kts 268°
2026-05-07 01:38 33.64942 -84.43720 1014 ft 4 kts 228°
2026-05-07 01:38 33.64890 -84.43740 1015 ft 2 kts 181°
2026-05-07 01:38 33.64875 -84.43739 1015 ft 5 kts 186°
2026-05-07 01:39 33.64854 -84.43758 1016 ft 1 kts 236°
2026-05-07 01:40 33.64853 -84.43760 1016 ft 0 kts 237°
2026-05-07 01:40 33.64825 -84.43810 1017 ft 9 kts 218°
2026-05-07 01:40 33.64796 -84.43823 1018 ft 0 kts 191°
2026-05-07 01:42 33.64790 -84.43824 1018 ft 7 kts 182°
2026-05-07 01:42 33.64666 -84.43816 1018 ft 23 kts 179°
2026-05-07 01:42 33.64508 -84.43819 1018 ft 21 kts 183°
2026-05-07 01:42 33.64435 -84.43906 1019 ft 11 kts 251°
2026-05-07 01:43 33.64428 -84.43977 1021 ft 12 kts 258°
2026-05-07 01:43 33.64328 -84.44049 1022 ft 25 kts 179°
2026-05-07 01:43 33.64119 -84.44050 1019 ft 26 kts 186°
2026-05-07 01:43 33.64099 -84.44053 1019 ft 0 kts 188°
2026-05-07 01:44 33.64074 -84.44057 1019 ft 6 kts 187°
2026-05-07 01:44 33.64027 -84.44074 1019 ft 7 kts 213°
2026-05-07 01:44 33.64006 -84.44127 1020 ft 6 kts 268°
2026-05-07 01:44 33.64005 -84.44175 1021 ft 4 kts 270°
2026-05-07 01:45 33.64005 -84.44196 1022 ft 0 kts 271°
2026-05-07 01:45 33.64005 -84.44197 1022 ft 0 kts 271°